Home   Weather   Abbotsford   Past weeks

Flag for Canada Past Weather in Abbotsford, British Columbia, Canada — Yesterday and Last 2 Weeks

Now
30 °F

Light snow. Mostly cloudy.


Feels Like: 24 °F
Forecast: 31 / 40 °F
Wind: 6 mph from Northwest

Location: Abbotsford

Current Time: Feb 24, 2018 at 6:23:29 am

Latest Report: Feb 24, 2018 at 6:00 am


Visibility: 1 mi

Pressure: 29.91 "Hg

Humidity: 100%

Dew Point: 30 °F

Location of AbbotsfordLocation

Past Weather in Abbotsford — Graph

°F

Abbotsford Temperature Yesterday

Maximum temperature yesterday: 30 °F (at 1:00 pm)
Minimum temperature yesterday: 23 °F (at 2:00 am)
Average temperature yesterday: 27 °F

High & Low Weather Summary for the Past Weeks

 TemperatureHumidityPressure
High46 °F (Feb 16, 1:00 pm)100% (Feb 13, 9:21 pm)30.47 "Hg (Feb 13, 9:21 pm)
Low19 °F (Feb 20, 5:00 am)26% (Feb 12, 4:00 pm)29.46 "Hg (Feb 17, 12:00 pm)
Average33 °F72%30.15 "Hg
* Reported Feb 9 5:00 am — Feb 24 5:17 am, Abbotsford. Weather by CustomWeather, © 2018

Note: Actual official high and low records may vary slightly from our data, if they occured in-between our weather recording intervals... More about our weather records

Advertising

Abbotsford Weather History for the Previous 24 Hours

Scroll right to see more
 ConditionsComfort  
Time TempWeatherWind HumidityBarometerVisibility
5:17 am
Sat, Feb 24
30 °FLight snow. Mostly cloudy.5 mph100%29.90 "Hg1 mi
4:00 am30 °FSnow. Ice fog.7 mph93%29.88 "Hg1 mi
3:00 am30 °FSnow. Ice fog.5 mph93%29.90 "Hg1 mi
2:38 am30 °FLight snow. Ice fog.5 mph93%29.91 "Hg1 mi
2:07 am28 °FSnow. Ice fog.5 mph100%29.93 "Hg1 mi
1:00 am28 °FLight snow. Ice fog.2 mph100%29.96 "Hg1 mi
12:11 am28 °FLight snow. Ice fog.3 mph100%29.99 "Hg1 mi
11:49 pm
Fri, Feb 23
28 °FLight snow. Ice fog.5 mph100%30.01 "Hg1 mi
11:30 pm28 °FSnow. Ice fog.2 mph100%30.02 "Hg1 mi
11:23 pm28 °FLight snow. Ice fog.3 mph100%30.03 "Hg1 mi
11:00 pm28 °FLight snow. Ice fog.3 mph100%30.05 "Hg1 mi
10:00 pm28 °FLight snow. Ice fog.6 mph100%30.09 "Hg1 mi
9:51 pm28 °FLight snow. Overcast.6 mph93%30.10 "Hg1 mi
9:44 pm28 °FLight snow. Overcast.3 mph93%30.10 "Hg1 mi
9:00 pm28 °FLight snow. Mostly cloudy.5 mph100%30.12 "Hg2 mi
8:22 pm30 °FLight snow. Mostly cloudy.9 mph93%30.14 "Hg2 mi
7:36 pm28 °FIce fog.8 mph93%30.15 "Hg4 mi
7:00 pm28 °FLight snow. Mostly cloudy.10 mph100%30.17 "Hg2 mi
6:00 pm28 °FLight snow. Mostly cloudy.6 mph100%30.18 "Hg2 mi
5:36 pm28 °FLight snow. Mostly cloudy.8 mph100%30.19 "Hg1 mi
4:00 pm30 °FLight snow. Mostly cloudy.6 mph93%30.22 "Hg1 mi
3:23 pm28 °FLight snow. Mostly cloudy.10 mph93%30.24 "Hg1 mi
3:00 pm28 °FLight snow. Cloudy.12 mph93%30.24 "Hg2 mi
2:36 pm28 °FLight snow. More clouds than sun.7 mph93%30.26 "Hg1 mi
2:00 pm30 °FLight snow. Mostly cloudy.7 mph93%30.28 "Hg1 mi
1:00 pm30 °FLight snow. Mostly cloudy.6 mph86%30.31 "Hg1 mi
12:12 pm28 °FSnow. Mostly cloudy.No wind93%30.35 "Hg1 mi
12:00 pm28 °FSnow. Mostly cloudy.2 mph93%30.36 "Hg1 mi
11:27 am28 °FSnow. Low clouds.3 mph93%30.37 "Hg1 mi
11:00 am28 °FSnow. Overcast.No wind93%30.39 "Hg1 mi
10:27 am28 °FSnow. Overcast.3 mph86%30.40 "Hg1 mi
10:00 am28 °FLight snow. Overcast.7 mph80%30.39 "Hg2 mi
9:00 am27 °FLight snow. Overcast.7 mph74%30.39 "Hg8 mi
8:33 am27 °FLight snow. Overcast.3 mph69%30.39 "Hg10 mi
8:00 am25 °FLight mixture of precip. Mostly cloudy.3 mph74%30.40 "Hg20 mi
7:00 am25 °FMostly cloudy.6 mph74%30.41 "Hg15 mi
6:00 am25 °FPassing clouds.3 mph74%30.42 "Hg15 mi
Weather by CustomWeather, © 2018

See weather overview